User: anonymous   Login
Location: Unspecified
(0.0000°N, 0.0000°E)
Time: 23:37:15
(UTC+00:00)
Language:

WGS F1 (USA 195) - Orbit

View from above orbital plane
View from above orbital plane
View from above satellite
View from above satellite

Ground track
Ground track

The orbit data is extracted from the following two-line orbital elements,

1 32258U 07046A   17316.10401733 0.00000000  00000-0  00000-0 0    07
2 32258   0.0110  94.8466 0002560 195.4078 164.5922  1.00270000    07
Epoch (UTC): 12 November 2017 02:29:47
Eccentricity: 0.0002560
inclination: 0.0110°
perigee height: 35776 km
apogee height: 35797 km
right ascension of ascending node: 94.8466°
argument of perigee: 195.4078°
revolutions per day: 1.00270000
mean anomaly at epoch: 164.5922°
orbit number at epoch: 0

The dashed part of the orbit path shows where the satellite is in the earth's shadow,  

DLR